This is the latest recevied weather packets stored in our database for station/object MB7UKY-10. If no packets are shown the sender has not sent any weather packets the latest 10 day(s).
| Time | Temp. | Humidity | Pressure | Rain* | Wind** | Luminosity | Snow |
|---|---|---|---|---|---|---|---|
| 1777661536 | 28.89° C | 42% | 1012.6 hPa | - | - | - | - |
| 1777660636 | 28.89° C | 42% | 1012.7 hPa | - | - | - | - |
| 1777659735 | 28.89° C | 42% | 1012.6 hPa | - | - | - | - |
| 1777658834 | 29.44° C | 42% | 1012.6 hPa | - | - | - | - |
| 1777657933 | 29.44° C | 43% | 1012.6 hPa | - | - | - | - |
| 1777657033 | 29.44° C | 42% | 1012.7 hPa | - | - | - | - |
| 1777656132 | 28.89° C | 42% | 1012.7 hPa | - | - | - | - |
| 1777655231 | 28.89° C | 42% | 1012.7 hPa | - | - | - | - |
| 1777654330 | 28.33° C | 43% | 1012.8 hPa | - | - | - | - |
| 1777653430 | 28.33° C | 43% | 1012.9 hPa | - | - | - | - |
| 1777652529 | 27.78° C | 43% | 1012.9 hPa | - | - | - | - |
| 1777651628 | 27.78° C | 43% | 1013 hPa | - | - | - | - |
| 1777650727 | 27.22° C | 43% | 1013.2 hPa | - | - | - | - |
| 1777649827 | 26.67° C | 43% | 1013.3 hPa | - | - | - | - |
| 1777648926 | 26.67° C | 42% | 1013.4 hPa | - | - | - | - |
| 1777648025 | 26.11° C | 42% | 1013.6 hPa | - | - | - | - |
| 1777647125 | 25.56° C | 43% | 1013.6 hPa | - | - | - | - |
| 1777646224 | 25° C | 43% | 1013.8 hPa | - | - | - | - |
| 1777645323 | 25° C | 43% | 1013.9 hPa | - | - | - | - |
| 1777644422 | 24.44° C | 43% | 1014 hPa | - | - | - | - |
| 1777643522 | 24.44° C | 43% | 1014.2 hPa | - | - | - | - |
| 1777642620 | 23.89° C | 43% | 1014.4 hPa | - | - | - | - |
| 1777641719 | 23.89° C | 43% | 1014.5 hPa | - | - | - | - |
| 1777640819 | 23.33° C | 43% | 1014.6 hPa | - | - | - | - |
| 1777640016 | 23.33° C | 43% | 1014.8 hPa | - | - | - | - |
* Rain since midnight (hover to see other rain measurements)
** Current wind speed in m/s (hover to see current wind gust speed)